Houston Clover, TX

8:52 PM CST on November 22, 2017 (GMT -0600)
Clover

Weather History for KLVJ - April, 2013

Change the Weather History Date:

Saturday, April 13, 2013

  Actual Average (KEFD) Record (KEFD)
Temperature  
Mean Temperature 63 °F -  
Max Temperature 75 °F 75 °F 87 °F (2005)
Min Temperature 51 °F 58 °F 42 °F (1997)
Degree Days  
Heating Degree Days 2    
Growing Degree Days 13 (Base 50)    
Moisture  
Dew Point 53 °F    
Average Humidity 70    
Maximum Humidity 90    
Minimum Humidity 40    
Precipitation  
Precipitation 0.00 in - - ()
Sea Level Pressure  
Sea Level Pressure 29.92 in    
Wind  
Wind Speed 5 mph (East)    
Max Wind Speed 17 mph    
Max Gust Speed 23 mph    
Visibility 9 miles    
Events      
Averages and records for this station are not official NWS values.
T = Trace of Precipitation, MM = Missing Value Source: NWS Daily Summary

Daily Weather History Graph

Daily Weather History Graph

Search for Another Location

Airport or City:

Trip Planner

Search our weather history database for the weather conditions in past years. The results will help you decide how hot, cold, wet, or windy it might be!

Date:

Astronomy

Apr. 13, 2013 Rise Set
Actual Time 6:56 AM CDT 7:46 PM CDT
Civil Twilight 6:32 AM CDT 8:11 PM CDT
Nautical Twilight 6:03 AM CDT 8:39 PM CDT
Astronomical Twilight 5:34 AM CDT 9:09 PM CDT
Moon 9:00 AM CDT (4/13) 10:58 PM CDT (4/13)
Length of Visible Light 13h 38m
Length of Day
12h 50m
Waxing Crescent, 10% of the Moon is Illuminated
Apr 13
Waxing Crescent
Apr 18
First Quarter
Apr 25
Full
May 2
Last Quarter
May 9
New

Hourly Weather History & Observations

Time (CDT) Temp. Dew Point Humidity Pressure Visibility Wind Dir Wind Speed Gust Speed Precip Events Conditions
12:53 AM 55.0 °F 51.1 °F 86% 29.99 in 8.0 mi Calm Calm - N/A   Clear
1:53 AM 54.0 °F 51.1 °F 90% 29.97 in 7.0 mi Calm Calm - N/A   Clear
2:53 AM 52.0 °F 48.9 °F 89% 29.97 in 6.0 mi Calm Calm - N/A   Clear
3:53 AM 52.0 °F 48.9 °F 89% 29.96 in 8.0 mi Calm Calm - N/A   Clear
4:53 AM 52.0 °F 48.9 °F 89% 29.96 in 6.0 mi Calm Calm - N/A   Clear
5:53 AM 51.1 °F 48.0 °F 89% 29.96 in 6.0 mi Calm Calm - N/A   Clear
6:53 AM 52.0 °F 48.9 °F 89% 29.98 in 5.0 mi Calm Calm - N/A   Clear
7:53 AM 55.9 °F 53.1 °F 90% 29.99 in 5.0 mi Calm Calm - N/A   Clear
8:53 AM 62.1 °F 57.0 °F 84% 29.98 in 10.0 mi ENE 4.6 mph - N/A   Clear
9:53 AM 68.0 °F 55.9 °F 65% 29.98 in 10.0 mi East 9.2 mph - N/A   Clear
10:53 AM 71.1 °F 52.0 °F 51% 29.98 in 10.0 mi ESE 11.5 mph 21.9 mph N/A   Clear
11:53 AM 72.0 °F 52.0 °F 49% 29.96 in 10.0 mi East 13.8 mph - N/A   Clear
12:53 PM 73.9 °F 48.9 °F 41% 29.94 in 10.0 mi East 17.3 mph 23.0 mph N/A   Clear
1:53 PM 75.9 °F 50.0 °F 40% 29.92 in 10.0 mi ESE 13.8 mph 21.9 mph N/A   Clear
2:53 PM 75.0 °F 51.1 °F 43% 29.90 in 10.0 mi SE 13.8 mph 23.0 mph N/A   Clear
3:53 PM 73.9 °F 53.1 °F 48% 29.87 in 10.0 mi East 17.3 mph 21.9 mph N/A   Partly Cloudy
4:53 PM 72.0 °F 52.0 °F 49% 29.86 in 10.0 mi ESE 13.8 mph 21.9 mph N/A   Overcast
5:53 PM 72.0 °F 55.0 °F 55% 29.85 in 10.0 mi SE 15.0 mph - N/A   Clear
6:53 PM 70.0 °F 57.0 °F 63% 29.85 in 10.0 mi ESE 13.8 mph - N/A   Clear
7:53 PM 66.9 °F 55.9 °F 68% 29.85 in 10.0 mi ESE 10.4 mph - N/A   Partly Cloudy
8:53 PM 64.9 °F 57.0 °F 75% 29.84 in 10.0 mi East 6.9 mph - N/A   Partly Cloudy
9:53 PM 64.9 °F 57.9 °F 78% 29.85 in 10.0 mi East 5.8 mph - N/A   Clear
10:53 PM 64.0 °F 59.0 °F 84% 29.86 in 10.0 mi ENE 3.5 mph - N/A   Mostly Cloudy
11:53 PM 64.0 °F 59.0 °F 84% 29.83 in 10.0 mi East 3.5 mph - N/A   Partly Cloudy